Weather History for KTRM - February, 2013

Change the Weather History Date:

Sunday, February 3, 2013

  Actual Average Record
Temperature  
Mean Temperature 70 °F 56 °F  
Max Temperature 79 °F 73 °F 92 °F (1995)
Min Temperature 61 °F 39 °F 19 °F (2011)
Degree Days  
Heating Degree Days 0 9  
Month to date heating degree days 9 27  
Since 1 July heating degree days 836 887  
Cooling Degree Days 5 0  
Month to date cooling degree days 5 0  
Year to date cooling degree days 5 2  
Growing Degree Days 18 (Base 50)    
Moisture  
Dew Point 44 °F    
Average Humidity 46    
Maximum Humidity 64    
Minimum Humidity 27    
Precipitation  
Precipitation T in 0.02 in 0.35 in (1998)
Month to date precipitation T 0.06  
Year to date precipitation 0.37 0.73  
Since 1 July precipitation 2.55  
Snow  
Snow 0.00 in - - ()
Month to date snowfall 0.0  
Year to date snowfall 0.0  
Since 1 July snowfall 0.0  
Snow Depth 0.00 in    
Sea Level Pressure  
Sea Level Pressure 30.02 in    
Wind  
Wind Speed 6 mph (NNW)    
Max Wind Speed 17 mph    
Max Gust Speed 22 mph    
Visibility 10 miles    
Events Rain    
T = Trace of Precipitation, MM = Missing Value Source: NWS Daily Summary

Daily Weather History Graph

Daily Weather History Graph

Search for Another Location

Airport or City:

Trip Planner

Search our weather history database for the weather conditions in past years. The results will help you decide how hot, cold, wet, or windy it might be!

Date:

Astronomy

Feb. 03, 2013 Rise Set
Actual Time 6:39 AM PST 5:18 PM PST
Civil Twilight 6:13 AM PST 5:44 PM PST
Nautical Twilight 5:43 AM PST 6:13 PM PST
Astronomical Twilight 5:14 AM PST 6:43 PM PST
Moon 12:10 AM PST 11:00 AM PST
Length of Visible Light 11h 30m
Length of Day
10h 38m
Waning Gibbous, 47% of the Moon is Illuminated
Feb 3
Waning Gibbous
Feb 9
New
Feb 17
First Quarter
Feb 25
Full
Mar 4
Last Quarter

Hourly Weather History & Observations

Time (PST) Temp. Dew Point Humidity Pressure Visibility Wind Dir Wind Speed Gust Speed Precip Events Conditions
1:52 AM 63.0 °F 46.0 °F 54% 30.06 in 10.0 mi North 4.6 mph - N/A   Mostly Cloudy
2:52 AM 62.1 °F 46.9 °F 58% 30.06 in 10.0 mi Calm Calm - N/A   Overcast
3:52 AM 64.0 °F 46.0 °F 52% 30.06 in 10.0 mi NNE 6.9 mph - 0.00 in Rain Light Rain
4:52 AM 63.0 °F 48.0 °F 58% 30.06 in 10.0 mi NNW 3.5 mph - 0.00 in   Overcast
5:52 AM 66.9 °F 45.0 °F 45% 30.06 in 10.0 mi NW 13.8 mph 20.7 mph N/A   Overcast
6:52 AM 64.9 °F 46.0 °F 50% 30.06 in 10.0 mi NNW 5.8 mph - N/A   Overcast
7:52 AM 64.9 °F 46.9 °F 52% 30.07 in 10.0 mi NE 6.9 mph - N/A   Overcast
8:52 AM 69.1 °F 48.0 °F 47% 30.08 in 10.0 mi North 4.6 mph - N/A   Mostly Cloudy
9:52 AM 73.9 °F 43.0 °F 33% 30.07 in 10.0 mi NNW 9.2 mph - N/A   Overcast
10:52 AM 73.0 °F 41.0 °F 31% 30.06 in 10.0 mi WNW 3.5 mph - N/A   Mostly Cloudy
11:52 AM 73.9 °F 41.0 °F 30% 30.02 in 10.0 mi WNW 6.9 mph - N/A   Scattered Clouds
12:52 PM 75.9 °F 41.0 °F 29% 29.98 in 10.0 mi Variable 6.9 mph - N/A   Clear
1:52 PM 78.1 °F 41.0 °F 27% 29.96 in 10.0 mi NNW 10.4 mph 18.4 mph N/A   Partly Cloudy
2:52 PM 77.0 °F 41.0 °F 28% 29.95 in 10.0 mi WNW 5.8 mph - N/A   Overcast
3:52 PM 77.0 °F 42.1 °F 29% 29.95 in 10.0 mi West 5.8 mph - N/A   Clear
4:52 PM 73.9 °F 44.1 °F 34% 29.95 in 10.0 mi Calm Calm - N/A   Clear
5:52 PM 70.0 °F 43.0 °F 38% 29.96 in 10.0 mi NE 4.6 mph - N/A   Clear
6:52 PM 64.0 °F 45.0 °F 50% 29.97 in 10.0 mi Calm Calm - N/A   Clear
7:52 PM 59.0 °F 44.1 °F 58% 29.99 in 10.0 mi Calm Calm - N/A   Clear
8:52 PM 57.9 °F 45.0 °F 62% 30.00 in 10.0 mi Calm Calm - N/A   Clear
9:52 PM 57.0 °F 43.0 °F 59% 30.00 in 10.0 mi Calm Calm - N/A   Clear
10:52 PM 59.0 °F 44.1 °F 58% 30.00 in 10.0 mi NNE 4.6 mph - N/A   Clear
11:52 PM 55.0 °F 43.0 °F 64% 30.01 in 10.0 mi North 3.5 mph - N/A   Clear